Station TCBM2 - 8573364 - Tolchester Beach, MD Image indicating link to RSS feed of recent meteorological observations for station TCBM2


Conditions at TCBM2 as of
(8:30 am EDT)
1230 GMT on 07/22/2024:
     

Click on the graph icon in the table below to see a time series plot of the last five days of that observation.

5-day plot - Wind Direction Wind Direction (WDIR):ESE ( 110 deg true )
5-day plot - Wind Speed Wind Speed (WSPD): 5.1 kts
5-day plot - Wind Gust Wind Gust (GST): 8.0 kts
5-day plot - Atmospheric Pressure Atmospheric Pressure (PRES):30.06 in
5-day plot - Air Temperature Air Temperature (ATMP): 74.8 °F
5-day plot - Water Temperature Water Temperature (WTMP): 84.2 °F
5-day plot - Wind Speed at 10 Meters Wind Speed at 10 meters (WSPD10M): 5.8 kts
5-day plot - Wind Speed at 20 Meters Wind Speed at 20 meters (WSPD20M): 5.8 kts
5-day plot -  Wind Speed, Wind Gust and Atmospheric Pressure Combined plot of Wind Speed, Gust, and Air Pressure
NOS Water Level Observation Network Water Level
Previous observations
TIME
(EDT)
5-day plot - Wind Direction
WDIR
 
5-day plot - Wind Speed
WSPD
kts
5-day plot - Wind Gust
GST
kts
5-day plot - Wave Height
WVHT
ft
5-day plot - Dominant Wave Period
DPD
sec
5-day plot - Average Wave Period
APD
sec
5-day plot - Mean Wave Direction
MWD
 
5-day plot - Atmospheric Pressure
PRES
in
5-day plot - Pressure Tendency
PTDY
in
5-day plot - Air Temperature
ATMP
°F
5-day plot - Water Temperature
WTMP
°F
5-day plot - Dew Point
DEWP
°F
5-day plot - Salinity
SAL
psu
5-day plot - Visibility
VIS
nmi
5-day plot - Tide (above MLLW)
TIDE
ft
2024-07-22 08:24 amESE 5.1 8.0----30.06- 74.7 84.2----
2024-07-22 08:18 amESE 6.0 8.0----30.06- 74.3 84.2----
2024-07-22 08:12 amESE 5.1 8.0----30.06- 74.3 84.2----
2024-07-22 08:06 amESE 5.1 7.0----30.05- 74.3 84.0----
2024-07-22 08:00 amESE 6.0 8.0----30.05+0.01 73.9 84.2----
2024-07-22 07:54 amESE 6.0 8.0----30.05- 73.9 84.2----
2024-07-22 07:48 amESE 6.0 7.0----30.05- 74.1 84.2----
2024-07-22 07:42 am E 5.1 7.0----30.05- 74.1 84.2----
2024-07-22 07:36 amESE 6.0 8.0----30.05- 73.9 84.0----
2024-07-22 07:30 amESE 5.1 7.0----30.05- 73.9 84.0----
2024-07-22 07:24 am E 5.1 8.0----30.05- 73.8 84.2----
2024-07-22 07:18 amESE 5.1 7.0----30.05-------
2024-07-22 07:12 am E 5.1 6.0----30.05- 73.6 84.2----
2024-07-22 07:06 amESE 5.1 8.0----30.05- 73.4 84.2----
2024-07-22 07:00 amESE 5.1 7.0----30.05+0.01 73.2 84.2----
2024-07-22 06:54 amESE 5.1 8.0----30.05- 73.2 84.2----
2024-07-22 06:48 am E 4.1 7.0----30.05- 73.4 84.2----
2024-07-22 06:42 amESE 6.0 8.0----30.05- 73.2 84.4----
2024-07-22 06:36 am E 5.1 7.0----30.05- 73.4 84.4----
2024-07-22 06:30 am E 5.1 8.0----30.05- 73.6 84.4----
2024-07-22 06:24 amESE 5.1 7.0----30.05- 73.6 84.4----
2024-07-22 06:18 am E 4.1 7.0----30.05- 73.6 84.4----
2024-07-22 06:12 am E 5.1 6.0----30.05- 73.8 84.4----
2024-07-22 06:06 amESE 4.1 7.0----30.05- 73.8 84.4----
2024-07-22 06:00 amESE 4.1 8.0----30.05+0.01 73.8 84.4----
2024-07-22 05:54 am SE 5.1 7.0----30.05- 73.8 84.6----
2024-07-22 05:48 amESE 4.1 7.0----30.06- 73.8 84.6----
2024-07-22 05:42 amESE 5.1 7.0----30.05- 73.6 84.6----
2024-07-22 05:36 amESE 5.1 7.0----30.05- 73.6 84.6----
2024-07-22 05:30 amESE 5.1 7.0----30.05- 73.6 84.6----
2024-07-22 05:24 am E 5.1 6.0----30.04- 73.6 84.7----
2024-07-22 05:18 am E 5.1 7.0----30.04- 73.8 84.7----
2024-07-22 05:12 am E 6.0 7.0----30.04- 73.8 84.7----
2024-07-22 05:06 amESE 5.1 7.0----30.04- 73.9 84.7----
2024-07-22 05:00 amESE 4.1 6.0----30.04-0.02 74.1 84.7----
2024-07-22 04:54 amESE 4.1 7.0----30.04- 74.1 84.7----
2024-07-22 04:48 am SE 5.1 7.0----30.03- 74.1 84.7----
2024-07-22 04:42 am SE 5.1 7.0----30.03- 74.1 84.7----
2024-07-22 04:36 amESE 4.1 7.0----30.03- 74.3 84.7----
2024-07-22 04:30 amESE 4.1 6.0----30.03- 74.3 84.9----
2024-07-22 04:24 amESE 5.1 7.0----30.03- 74.3 84.9----
2024-07-22 04:18 amESE 5.1 7.0----30.03- 74.5 85.1----
2024-07-22 04:12 am SE 5.1 7.0----30.03- 74.3 85.1----
2024-07-22 04:06 am SE 5.1 8.0----30.04- 74.3 85.1----
2024-07-22 04:00 am SE 5.1 8.0----30.04-0.02 74.3 85.1----
2024-07-22 03:54 am SE 5.1 7.0----30.04- 74.5 85.3----
2024-07-22 03:48 am SE 5.1 7.0----30.04-- 85.3----
2024-07-22 03:42 am SE 5.1 7.0----30.03- 74.5 85.3----
2024-07-22 03:36 am SE 5.1 7.0----30.04- 74.7 85.3----
2024-07-22 03:30 am SE 6.0 8.0----30.04- 74.5 85.3----
2024-07-22 03:24 am SE 5.1 8.0----30.04- 74.7 85.3----
2024-07-22 03:18 am SE 5.1 8.9----30.04- 74.5 85.3----
2024-07-22 03:12 am SE 6.0 8.0----30.04- 74.5 85.3----
2024-07-22 03:06 am SE 5.1 7.0----30.04- 74.7 85.3----
2024-07-22 03:00 am SE 5.1 8.0----30.04-0.01 74.8 85.5----
2024-07-22 02:54 am SE 4.1 9.9----30.04- 74.8 85.5----
2024-07-22 02:48 am SE 5.1 7.0----30.05-- 85.5----
2024-07-22 02:42 amSSE 5.1 8.9----30.05- 75.0 85.5----
2024-07-22 02:36 am SE 4.1 8.9----30.05- 75.2 85.5----
2024-07-22 02:30 am SE 6.0 8.0----30.05- 75.2 85.5----
2024-07-22 02:24 am SE 5.1 8.9----30.05- 75.4 85.5----
2024-07-22 02:18 amSSE 7.0 8.9----30.05- 75.6 85.6----
2024-07-22 02:12 am SE 6.0 8.0----30.05- 75.6 85.6----
2024-07-22 02:06 am SE 5.1 8.0----30.05- 75.7 85.6----
2024-07-22 02:00 am SE 6.0 8.0----30.06+0.00 75.9 85.6----
2024-07-22 01:54 am SE 5.1 8.9----30.06- 76.1 85.6----
2024-07-22 01:48 amSSE 6.0 8.0----30.06- 76.3 85.6----
2024-07-22 01:42 am SE 5.1 7.0----30.06- 76.5 85.6----
2024-07-22 01:36 amSSE 4.1 7.0----30.06- 76.6 85.6----
2024-07-22 01:30 amSSE 5.1 7.0----30.06- 76.6 85.6----
2024-07-22 01:24 amSSE 5.1 6.0----30.06- 76.6 85.8----
2024-07-22 01:18 amSSE 5.1 7.0----30.06- 76.6 85.8----
2024-07-22 01:12 am SE 4.1 6.0----30.06- 76.6 85.8----
2024-07-22 01:06 am SE 4.1 6.0----30.06- 76.8 85.8----
2024-07-22 01:00 am SE 4.1 6.0----30.06+0.01 76.8 85.8----
2024-07-22 12:54 am SE 2.9 6.0----30.06- 77.0 85.8----
2024-07-22 12:48 am SE 4.1 6.0----30.06- 77.0 85.8----
2024-07-22 12:42 am SE 4.1 6.0----30.05- 77.2 85.8----
2024-07-22 12:36 amSSE 4.1 6.0----30.05- 77.2 86.0----
2024-07-22 12:30 am--------- 77.2 86.0----
2024-07-22 12:24 am--------- 77.4 86.0----
2024-07-22 12:18 am SE 4.1 6.0----30.05- 77.5 86.0----
2024-07-22 12:12 amSSE 5.1 7.0----30.05- 77.5 86.0----
2024-07-22 12:06 am SE 5.1 7.0----30.05- 77.5 86.0----
2024-07-22 12:00 am SE 2.9 6.0----30.06+0.03 77.5 86.2----
2024-07-21 11:54 pm SE 4.1 5.1----30.06- 77.7 86.2----
2024-07-21 11:48 pm SE 2.9 6.0----30.06-- 86.2----
2024-07-21 11:42 pm SE 4.1 5.1----30.06-- 86.4----
2024-07-21 11:36 pm SE 2.9 4.1----30.06-- 86.4----
2024-07-21 11:30 pm SE 4.1 5.1----30.06- 78.6 86.4----
2024-07-21 11:24 pmSSE 2.9 6.0----30.05- 79.0 86.4----
2024-07-21 11:18 pmSSE 4.1 6.0----30.06- 79.0 86.4----
2024-07-21 11:12 pm S 2.9 6.0----30.06- 79.2 86.5----
2024-07-21 11:06 pm S 2.9 6.0----30.05- 79.2 86.5----
2024-07-21 11:00 pmSSE 4.1 6.0----30.05+0.05 79.2 86.7----
2024-07-21 10:54 pmSSE 4.1 6.0----30.05- 79.3 86.7----
2024-07-21 10:48 pm SE 4.1 6.0----30.06- 79.2 86.9----
2024-07-21 10:42 pm SE 4.1 7.0----30.06- 79.2 86.9----
2024-07-21 10:36 pm SE 5.1 6.0----30.06- 79.3 86.9----
2024-07-21 10:30 pm SE 4.1 6.0------ 79.3 86.9----
2024-07-21 10:24 pmSSE 4.1 6.0------ 79.7 86.9----
2024-07-21 10:18 pmSSE 4.1 6.0----30.05- 79.9 87.3----
2024-07-21 10:12 pmSSE 2.9 8.9----30.05- 79.9 87.3----
2024-07-21 10:06 pmSSE 4.1 7.0----30.05- 80.1 87.3----
2024-07-21 10:00 pmSSE 4.1 7.0----30.04+0.04 80.1 87.4----
2024-07-21 09:54 pmSSE 2.9 6.0----30.04- 80.1 87.4----
2024-07-21 09:48 pm-------30.04-------
2024-07-21 09:42 pmSSE 2.9 5.1----30.04- 80.2 87.4----
2024-07-21 09:36 pmSSE 2.9 5.1----30.04- 80.2 87.4----
2024-07-21 09:30 pmSSE 2.9 4.1----30.03- 80.2 87.4----
2024-07-21 09:24 pmSSE 2.9 5.1----30.03- 80.4 87.6----
2024-07-21 09:18 pmSSE 2.9 4.1----30.03-- 87.6----
2024-07-21 09:12 pm SE 2.9 4.1----30.03-- 87.6----
2024-07-21 09:06 pm SE 2.9 4.1----30.03-- 87.6----
2024-07-21 09:00 pm SE 1.9 2.9----30.02+0.02- 87.6----
2024-07-21 08:54 pmSSE 1.9 4.1----30.02-- 87.8----
2024-07-21 08:48 pmSSE 1.9 5.1----30.02- 81.3 87.8----
2024-07-21 08:42 pmSSE 2.9 5.1----30.02- 81.3 87.8----
2024-07-21 08:36 pmSSE 1.9 4.1----30.02- 81.3 87.8----
2024-07-21 08:30 pm SE 1.9 2.9----30.01- 81.3 87.8----
2024-07-21 08:24 pm SE 2.9 4.1----30.01- 81.7 87.8----
2024-07-21 08:18 pmSSE 2.9 5.1----30.01-- 87.8----
2024-07-21 08:12 pm S 2.9 5.1----30.01-- 87.8----
2024-07-21 08:06 pmSSE 1.9 4.1----30.01-- 87.8----
2024-07-21 08:00 pmSSE 1.9 4.1----30.01+0.00 82.6 87.8----
2024-07-21 07:54 pm S 2.9 5.1----30.00- 82.6 87.8----
2024-07-21 07:48 pm S 2.9 6.0----30.00-------
2024-07-21 07:42 pm S 2.9 5.1----30.00-------
2024-07-21 07:36 pm S 2.9 6.0----30.00-------
2024-07-21 07:30 pm S 2.9 6.0----30.00- 84.0 87.8----
2024-07-21 07:24 pm S 4.1 7.0----30.01- 84.2 87.8----
2024-07-21 07:18 pm S 2.9 5.1----30.00- 84.6 87.8----
2024-07-21 07:12 pm S 4.1 6.0----30.00- 84.4 88.0----
2024-07-21 07:00 pm S 2.9 8.0----30.00-0.01- 88.2----
2024-07-21 06:54 pmSSW 5.1 8.9----30.00-- 88.0----
2024-07-21 06:48 pmSSW 5.1 8.0----30.01- 84.4 88.0----
2024-07-21 06:42 pmSSW 7.0 8.9----30.00- 84.4 87.8----
2024-07-21 06:36 pmSSW 5.1 11.1----30.00- 84.2 88.0----
2024-07-21 06:30 pm-------30.00- 84.2 88.0----
2024-07-21 06:24 pm-------30.00- 84.6 87.8----
2024-07-21 06:18 pm SW 7.0 11.1----30.00- 84.9 87.6----
2024-07-21 06:12 pm SW 8.0 11.1----30.00- 84.9 87.8----
2024-07-21 06:06 pmSSW 7.0 9.9----30.00- 85.5 87.8----
2024-07-21 06:00 pm SW 7.0 8.9----30.00-0.02 85.5 87.4----
2024-07-21 05:54 pmSSW 7.0 9.9----30.00- 85.6 87.1----
2024-07-21 05:48 pmSSW 6.0 8.0----30.00- 85.5 87.4----
2024-07-21 05:42 pmSSW 6.0 8.9----30.00- 85.3 87.4----
2024-07-21 05:36 pm S 5.1 8.9----30.00- 84.9 87.4----
2024-07-21 05:30 pm SW 7.0 8.9----30.00-- 87.4----
2024-07-21 05:24 pm SW 5.1 11.1----30.01-- 87.1----
2024-07-21 05:18 pm-------30.01- 84.9 87.1----
2024-07-21 05:12 pm-------30.01- 85.3 87.1----
2024-07-21 05:06 pm-------30.01- 85.1 86.5----
2024-07-21 05:00 pmSSW 5.1 8.9----30.01-0.02 84.9 86.9----
2024-07-21 04:54 pm SW 5.1 8.0----30.01- 85.1 86.9----
2024-07-21 04:48 pmWSW 7.0 9.9----30.01- 84.0 86.5----
2024-07-21 04:42 pm SW 7.0 9.9----30.01- 84.7 86.7----
2024-07-21 04:36 pm SW 8.0 11.1----30.01- 84.6 86.5----
2024-07-21 04:30 pm-------30.01- 84.4 86.2----
2024-07-21 04:24 pm-------30.01- 84.2 86.4----
2024-07-21 04:18 pm SW 8.9 11.1----30.01- 84.0 86.4----
2024-07-21 04:12 pm SW 8.9 11.1----30.01- 83.7 86.0----
2024-07-21 04:06 pm SW 6.0 9.9----30.01- 84.4 86.2----
2024-07-21 04:00 pm-------30.01-0.03 84.2 86.0----
2024-07-21 03:54 pm-------30.01- 83.7 86.2----
2024-07-21 03:48 pmWSW 7.0 8.9----30.01- 84.0 86.0----
2024-07-21 03:42 pm SW 7.0 9.9----30.01- 84.0 86.0----
2024-07-21 03:36 pm SW 8.0 9.9----30.01- 83.3 85.8----
2024-07-21 03:30 pm SW 6.0 8.9----30.01- 83.8 85.6----
2024-07-21 03:24 pm SW 8.0 11.1----30.02- 83.3 85.6----
2024-07-21 03:18 pm SW 8.0 9.9----30.02- 83.3 85.5----
2024-07-21 03:12 pmWSW 7.0 9.9----30.02- 83.3 85.6----
2024-07-21 03:06 pmWSW 7.0 8.9----30.02- 83.5 85.5----
2024-07-21 03:00 pmWSW 8.0 9.9----30.02-0.03 83.1 85.5----
2024-07-21 02:54 pmWSW 8.0 12.0----30.03- 83.1 85.5----
2024-07-21 02:48 pm SW 8.0 11.1----30.03- 83.1 85.6----
2024-07-21 02:42 pm SW 7.0 11.1----30.03- 83.1 85.6----
2024-07-21 02:36 pmWSW 8.0 9.9----30.03- 83.1 85.5----
2024-07-21 02:30 pm SW 7.0 9.9------ 82.9 85.3----
2024-07-21 02:24 pm SW 7.0 12.0------ 83.1 85.1----
2024-07-21 02:18 pmWSW 7.0 8.9----30.03- 82.4 85.1----
2024-07-21 02:12 pmWSW 6.0 8.9----30.03- 82.6 85.1----
2024-07-21 02:06 pmWSW 6.0 8.0----30.03- 82.4 85.1----
2024-07-21 02:00 pm SW 6.0 8.9----30.03-0.02- 85.1----
2024-07-21 01:54 pmWSW 7.0 8.9----30.03-- 84.9----
2024-07-21 01:48 pmWSW 6.0 8.0----30.04-- 85.1----
2024-07-21 01:42 pmWSW 5.1 7.0----30.04-- 84.9----
2024-07-21 01:36 pm SW 5.1 7.0----30.04-- 84.9----
2024-07-21 01:30 pmWSW 5.1 8.0----30.04- 81.3 84.9----
2024-07-21 01:24 pmWSW 5.1 8.0----30.04- 81.3 84.9----
2024-07-21 01:18 pm SW 6.0 8.0----30.04- 81.5 84.9----
2024-07-21 01:12 pmWSW 6.0 8.9----30.04- 81.1 84.9----
2024-07-21 01:06 pmWSW 5.1 7.0----30.05- 81.1 84.7----
2024-07-21 01:00 pmWSW 5.1 7.0----30.05+0.00 80.6 84.7----
2024-07-21 12:54 pm SW 5.1 6.0----30.05- 81.0 84.7----
2024-07-21 12:48 pm SW 4.1 7.0----30.05- 81.1 84.7----
2024-07-21 12:42 pmWSW 5.1 8.0----30.05- 80.6 84.7----
2024-07-21 12:36 pmWSW 5.1 8.0----30.06- 80.4 84.7----
2024-07-21 12:30 pmWSW 5.1 8.0----30.06- 80.1 84.7----
2024-07-21 12:24 pmWSW 6.0 8.0----30.06- 80.1 84.6----
2024-07-21 12:18 pmWSW 6.0 8.0----30.06- 79.9 84.6----
2024-07-21 12:12 pm W 6.0 7.0----30.05- 79.7 84.6----
2024-07-21 12:06 pmWSW 5.1 8.0----30.05- 79.7 84.4----
2024-07-21 12:00 pmWSW 4.1 7.0----30.05+0.00 79.5 84.4----
2024-07-21 11:54 am W 5.1 7.0----30.05- 79.0 84.4----
2024-07-21 11:48 am W 5.1 6.0----30.05- 79.0 84.4----
2024-07-21 11:42 am W 4.1 5.1----30.05- 79.0 84.4----
2024-07-21 11:36 am W 4.1 5.1----30.05- 79.2 84.4----
2024-07-21 11:30 amWSW 2.9 5.1----30.05- 79.0 84.4----
2024-07-21 11:24 am W 4.1 5.1----30.05- 78.8 84.2----
2024-07-21 11:18 am W 4.1 5.1----30.05- 78.6 84.2----
2024-07-21 11:12 am W 2.9 5.1----30.05- 78.8 84.4----
2024-07-21 11:06 amWNW 2.9 4.1----30.05- 78.6 84.2----
2024-07-21 11:00 am W 1.9 4.1----30.05+0.00 79.0 84.2----
2024-07-21 10:54 amWNW 1.9 4.1----30.05- 79.0 84.2----
2024-07-21 10:48 am NW 2.9 4.1----30.05- 78.8 84.2----
2024-07-21 10:42 am NW 2.9 4.1----30.05- 79.2 84.2----
2024-07-21 10:36 am NW 4.1 5.1----30.05- 78.8 84.2----
2024-07-21 10:30 am-------30.05- 79.2 84.2----
2024-07-21 10:24 am-------30.05- 78.8 84.2----
2024-07-21 10:18 am NW 2.9 2.9----30.05- 78.4 84.2----
2024-07-21 10:12 amWNW 1.9 4.1----30.04- 77.7 84.0----
2024-07-21 10:06 amNNW 1.9 5.1----30.04- 77.9 84.2----
2024-07-21 10:00 amNNW 2.9 5.1----30.05+0.01 78.3 84.2----
2024-07-21 09:54 amWNW 1.9 2.9----30.05- 78.3 84.0----
2024-07-21 09:48 amWNW 1.9 1.9----30.05- 78.3 84.0----
2024-07-21 09:42 am- 0.0 1.9----30.05- 78.6 84.0----
2024-07-21 09:36 am- 0.0 2.9----30.05- 77.9 84.0----
2024-07-21 09:30 am N 1.9 1.9----30.05-- 84.0----
2024-07-21 09:24 am- 0.0 1.9----30.05-- 83.8----
2024-07-21 09:18 am-------30.05- 77.0 83.8----
2024-07-21 09:12 am-------30.05- 77.0 83.8----
2024-07-21 09:06 am-------30.05- 77.4 84.0----
2024-07-21 09:00 amWSW 1.9 2.9----30.06+0.03- 83.7----
2024-07-21 08:54 am- 0.0 1.9----30.06-- 83.7----